When you browse on this site, cookies collect data to enhance your experience and personalize the content and advertising you see.
Visit our Privacy Policy to learn more. By continuing to use the site, you agree to this use of cookies and data.
  • Em Portugal
  • Lista de países
  • Para 7 dias
  • Temperatura da água
  • Mapa do tempo
  • Widgets de tempo
  • user-avatar
    Iniciar Sessão

    Previsão horária em Kitzbuel

    Hoje, 1 Junho, Segunda-feira

    Tempo Temperatura Precipitação Vento Pressão Humidade
    00:00 +7°C° 0 mm 1 m/s 678 mmHg 93%
    01:00 +6°C° 0 mm 1 m/s 679 mmHg 94%
    02:00 +6°C° 0 mm 1 m/s 678 mmHg 94%
    03:00 +6°C° 0 mm 1 m/s 678 mmHg 94%
    04:00 +5°C° 0 mm 1 m/s 678 mmHg 94%
    05:00 +8°C° 0 mm 1 m/s 678 mmHg 87%
    06:00 +9°C° 0 mm 0 m/s 679 mmHg 81%
    07:00 +11°C° 0 mm 0 m/s 679 mmHg 74%
    08:00 +14°C° 0 mm 1 m/s 679 mmHg 67%
    09:00 +16°C° 0 mm 1 m/s 680 mmHg 60%
    10:00 +19°C° 0 mm 1 m/s 680 mmHg 52%
    11:00 +18°C° 0 mm 2 m/s 680 mmHg 51%
    12:00 +19°C° 0 mm 2 m/s 680 mmHg 49%
    13:00 +20°C° 0 mm 3 m/s 679 mmHg 47%
    14:00 +19°C° 0 mm 3 m/s 679 mmHg 49%
    15:00 +19°C° 0 mm 3 m/s 679 mmHg 51%
    16:00 +19°C° 0 mm 3 m/s 679 mmHg 53%
    17:00 +18°C° 0 mm 2 m/s 679 mmHg 62%
    18:00 +16°C° 0 mm 2 m/s 679 mmHg 71%
    19:00 +15°C° 0 mm 1 m/s 678 mmHg 80%
    20:00 +13°C° 0 mm 1 m/s 678 mmHg 84%
    21:00 +11°C° 0 mm 1 m/s 678 mmHg 89%
    22:00 +9°C° 0 mm 1 m/s 678 mmHg 94%
    23:00 +9°C° 0 mm 1 m/s 678 mmHg 94%

    Amanhã, 2 Junho, Terça-feira

    Tempo Temperatura Precipitação Vento Pressão Humidade
    00:00 +9°C° 0 mm 1 m/s 678 mmHg 94%
    01:00 +8°C° 0 mm 1 m/s 678 mmHg 95%
    02:00 +8°C° 0 mm 1 m/s 677 mmHg 94%
    03:00 +8°C° 0 mm 1 m/s 677 mmHg 94%
    04:00 +8°C° 0 mm 1 m/s 677 mmHg 94%
    05:00 +10°C° 0 mm 1 m/s 677 mmHg 88%
    06:00 +11°C° 0 mm 0 m/s 678 mmHg 82%
    07:00 +13°C° 0 mm 0 m/s 678 mmHg 76%
    08:00 +15°C° 0 mm 1 m/s 678 mmHg 68%
    09:00 +18°C° 0 mm 1 m/s 678 mmHg 60%
    10:00 +18°C° 0 mm 2 m/s 679 mmHg 52%
    11:00 +19°C° 0 mm 2 m/s 678 mmHg 50%
    12:00 +19°C° 0 mm 2 m/s 678 mmHg 47%
    13:00 +20°C° 0 mm 3 m/s 678 mmHg 45%
    14:00 +20°C° 0.1 mm 3 m/s 677 mmHg 46%
    15:00 +19°C° 0.1 mm 3 m/s 677 mmHg 48%
    16:00 +19°C° 0.1 mm 2 m/s 676 mmHg 50%
    17:00 +17°C° 0.1 mm 2 m/s 676 mmHg 59%
    18:00 +16°C° 0.1 mm 2 m/s 675 mmHg 68%
    19:00 +14°C° 0.1 mm 1 m/s 675 mmHg 76%
    20:00 +13°C° 0 mm 1 m/s 675 mmHg 81%
    21:00 +11°C° 0 mm 1 m/s 675 mmHg 86%
    22:00 +9°C° 0 mm 1 m/s 675 mmHg 91%
    23:00 +9°C° 0 mm 1 m/s 674 mmHg 91%

    Depois de amanhã, 3 Junho, Quarta-feira

    Tempo Temperatura Precipitação Vento Pressão Humidade
    00:00 +8°C° 0 mm 1 m/s 674 mmHg 90%
    01:00 +8°C° 0 mm 1 m/s 674 mmHg 90%
    02:00 +8°C° 0 mm 1 m/s 673 mmHg 89%
    03:00 +8°C° 0 mm 1 m/s 673 mmHg 88%
    04:00 +7°C° 0 mm 1 m/s 673 mmHg 86%
    05:00 +10°C° 0 mm 1 m/s 673 mmHg 79%
    06:00 +11°C° 0 mm 0 m/s 673 mmHg 71%
    07:00 +13°C° 0 mm 0 m/s 673 mmHg 63%
    08:00 +15°C° 0 mm 0 m/s 673 mmHg 56%
    09:00 +19°C° 0 mm 1 m/s 673 mmHg 48%
    10:00 +21°C° 0 mm 1 m/s 674 mmHg 41%
    11:00 +22°C° 0 mm 1 m/s 673 mmHg 38%
    12:00 +23°C° 0 mm 1 m/s 673 mmHg 35%
    13:00 +23°C° 0 mm 2 m/s 673 mmHg 33%
    14:00 +23°C° 0 mm 2 m/s 672 mmHg 36%
    15:00 +23°C° 0 mm 2 m/s 672 mmHg 39%
    16:00 +21°C° 0 mm 2 m/s 671 mmHg 41%
    17:00 +20°C° 0.1 mm 1 m/s 671 mmHg 52%
    18:00 +19°C° 0.1 mm 1 m/s 670 mmHg 63%
    19:00 +16°C° 0.1 mm 1 m/s 669 mmHg 74%
    20:00 +15°C° 0 mm 1 m/s 669 mmHg 77%
    21:00 +13°C° 0 mm 2 m/s 669 mmHg 79%
    22:00 +12°C° 0 mm 2 m/s 669 mmHg 82%
    23:00 +12°C° 0 mm 2 m/s 669 mmHg 82%

    4 Junho, Quinta-feira

    Tempo Temperatura Precipitação Vento Pressão Humidade
    00:00 +10°C° 0 mm 2 m/s 668 mmHg 82%
    01:00 +10°C° 0 mm 2 m/s 668 mmHg 82%
    02:00 +10°C° 0 mm 2 m/s 667 mmHg 83%
    03:00 +10°C° 0 mm 2 m/s 667 mmHg 83%
    04:00 +9°C° 0 mm 2 m/s 667 mmHg 84%
    05:00 +12°C° 0 mm 1 m/s 667 mmHg 79%
    06:00 +13°C° 0 mm 1 m/s 667 mmHg 75%
    07:00 +15°C° 0 mm 1 m/s 667 mmHg 70%
    08:00 +16°C° 0.1 mm 1 m/s 667 mmHg 69%
    09:00 +16°C° 0.1 mm 1 m/s 667 mmHg 68%
    10:00 +16°C° 0.1 mm 0 m/s 667 mmHg 67%
    11:00 +19°C° 0.2 mm 1 m/s 667 mmHg 66%
    12:00 +19°C° 0.2 mm 1 m/s 667 mmHg 64%
    13:00 +20°C° 0.2 mm 1 m/s 667 mmHg 63%
    14:00 +19°C° 0.5 mm 1 m/s 666 mmHg 70%
    15:00 +18°C° 0.5 mm 1 m/s 666 mmHg 76%
    16:00 +16°C° 0.5 mm 2 m/s 665 mmHg 83%
    17:00 +15°C° 1 mm 2 m/s 665 mmHg 86%
    18:00 +14°C° 1 mm 2 m/s 665 mmHg 90%
    19:00 +13°C° 1 mm 2 m/s 664 mmHg 93%
    20:00 +12°C° 1.1 mm 1 m/s 664 mmHg 95%
    21:00 +12°C° 1.1 mm 1 m/s 664 mmHg 96%
    22:00 +11°C° 1.1 mm 1 m/s 664 mmHg 97%
    23:00 +11°C° 2.1 mm 1 m/s 664 mmHg 98%

    5 Junho, Sexta-feira

    Tempo Temperatura Precipitação Vento Pressão Humidade
    00:00 +10°C° 2.1 mm 1 m/s 663 mmHg 98%
    01:00 +10°C° 2.1 mm 1 m/s 663 mmHg 98%
    02:00 +9°C° 2.7 mm 1 m/s 663 mmHg 98%
    03:00 +9°C° 2.7 mm 1 m/s 663 mmHg 98%
    04:00 +9°C° 2.7 mm 1 m/s 662 mmHg 98%
    05:00 +8°C° 3.1 mm 1 m/s 663 mmHg 98%
    06:00 +8°C° 3.1 mm 1 m/s 663 mmHg 98%
    07:00 +8°C° 3.1 mm 1 m/s 664 mmHg 98%
    08:00 +8°C° 2.4 mm 1 m/s 664 mmHg 98%
    09:00 +8°C° 2.4 mm 1 m/s 664 mmHg 98%
    10:00 +6°C° 2.4 mm 2 m/s 665 mmHg 98%
    11:00 +8°C° 0.7 mm 1 m/s 665 mmHg 95%
    12:00 +8°C° 0.7 mm 1 m/s 666 mmHg 93%
    13:00 +8°C° 0.7 mm 1 m/s 666 mmHg 91%
    14:00 +8°C° 0.7 mm 1 m/s 666 mmHg 91%
    15:00 +8°C° 0.7 mm 1 m/s 667 mmHg 92%
    16:00 +8°C° 0.7 mm 1 m/s 667 mmHg 92%
    17:00 +8°C° 0.3 mm 1 m/s 667 mmHg 93%
    18:00 +8°C° 0.3 mm 1 m/s 668 mmHg 94%
    19:00 +8°C° 0.3 mm 1 m/s 668 mmHg 94%
    20:00 +7°C° 0.1 mm 1 m/s 669 mmHg 94%
    21:00 +7°C° 0.1 mm 1 m/s 669 mmHg 94%
    22:00 +6°C° 0.1 mm 1 m/s 670 mmHg 94%
    23:00 +5°C° 0 mm 1 m/s 670 mmHg 93%

    6 Junho, Sábado

    Tempo Temperatura Precipitação Vento Pressão Humidade
    00:00 +4°C° 0 mm 2 m/s 670 mmHg 92%
    01:00 +4°C° 0 mm 2 m/s 671 mmHg 91%
    02:00 +3°C° 0 mm 2 m/s 671 mmHg 90%
    03:00 +3°C° 0 mm 2 m/s 671 mmHg 89%
    04:00 +3°C° 0 mm 2 m/s 671 mmHg 88%
    05:00 +5°C° 0 mm 2 m/s 671 mmHg 85%
    06:00 +8°C° 0 mm 1 m/s 672 mmHg 82%
    07:00 +10°C° 0 mm 1 m/s 672 mmHg 79%
    08:00 +12°C° 0 mm 1 m/s 673 mmHg 69%
    09:00 +15°C° 0 mm 1 m/s 673 mmHg 58%
    10:00 +18°C° 0 mm 1 m/s 674 mmHg 48%
    11:00 +19°C° 0 mm 1 m/s 674 mmHg 47%
    12:00 +20°C° 0 mm 1 m/s 674 mmHg 46%
    13:00 +21°C° 0 mm 1 m/s 674 mmHg 44%
    14:00 +21°C° 0 mm 1 m/s 673 mmHg 46%
    15:00 +21°C° 0 mm 1 m/s 673 mmHg 47%
    16:00 +21°C° 0 mm 1 m/s 673 mmHg 48%
    17:00 +19°C° 0 mm 1 m/s 673 mmHg 59%
    18:00 +16°C° 0 mm 1 m/s 673 mmHg 71%
    19:00 +15°C° 0 mm 2 m/s 672 mmHg 83%
    20:00 +13°C° 0 mm 1 m/s 672 mmHg 86%
    21:00 +12°C° 0 mm 1 m/s 672 mmHg 90%
    22:00 +10°C° 0 mm 1 m/s 673 mmHg 93%
    23:00 +9°C° 0 mm 2 m/s 672 mmHg 92%
    Mostrar mais